When you browse on this site, cookies collect data to enhance your experience and personalize the content and advertising you see.
Visit our Privacy Policy to learn more. By continuing to use the site, you agree to this use of cookies and data.
  • Em Portugal
  • Lista de países
  • Para 7 dias
  • Temperatura da água
  • Mapa do tempo
  • Widgets de tempo
  • user-avatar
    Iniciar Sessão

    Previsão horária em Skalnyy

    Hoje, 21 Agosto, Quarta-feira

    Tempo Temperatura Precipitação Vento Pressão Humidade
    00:00 +13°C° 0 mm 3 m/s 736 mmHg 92%
    01:00 +12°C° 0 mm 3 m/s 736 mmHg 90%
    02:00 +12°C° 0 mm 3 m/s 737 mmHg 92%
    03:00 +11°C° 0 mm 3 m/s 737 mmHg 94%
    04:00 +12°C° 0 mm 2 m/s 737 mmHg 97%
    05:00 +13°C° 0 mm 2 m/s 737 mmHg 91%
    06:00 +13°C° 0 mm 3 m/s 738 mmHg 86%
    07:00 +13°C° 0 mm 3 m/s 738 mmHg 80%
    08:00 +16°C° 0 mm 3 m/s 738 mmHg 72%
    09:00 +17°C° 0 mm 3 m/s 739 mmHg 65%
    10:00 +19°C° 0 mm 3 m/s 739 mmHg 57%
    11:00 +19°C° 0 mm 3 m/s 739 mmHg 55%
    12:00 +20°C° 0 mm 2 m/s 739 mmHg 52%
    13:00 +20°C° 0 mm 2 m/s 739 mmHg 50%
    14:00 +20°C° 0 mm 2 m/s 739 mmHg 50%
    15:00 +21°C° 0 mm 1 m/s 739 mmHg 50%
    16:00 +21°C° 0 mm 1 m/s 739 mmHg 50%
    17:00 +20°C° 0 mm 1 m/s 739 mmHg 58%
    18:00 +18°C° 0 mm 1 m/s 739 mmHg 66%
    19:00 +15°C° 0 mm 1 m/s 739 mmHg 74%
    20:00 +14°C° 0 mm 1 m/s 739 mmHg 77%
    21:00 +13°C° 0 mm 1 m/s 739 mmHg 81%
    22:00 +12°C° 0 mm 1 m/s 739 mmHg 84%
    23:00 +10°C° 0 mm 0 m/s 738 mmHg 85%

    Amanhã, 22 Agosto, Quinta-feira

    Tempo Temperatura Precipitação Vento Pressão Humidade
    00:00 +10°C° 0 mm 0 m/s 738 mmHg 87%
    01:00 +9°C° 0 mm 0 m/s 738 mmHg 88%
    02:00 +9°C° 0 mm 0 m/s 738 mmHg 89%
    03:00 +9°C° 0 mm 0 m/s 738 mmHg 89%
    04:00 +10°C° 0 mm 1 m/s 739 mmHg 90%
    05:00 +11°C° 0 mm 1 m/s 738 mmHg 87%
    06:00 +12°C° 0 mm 1 m/s 738 mmHg 84%
    07:00 +13°C° 0 mm 1 m/s 738 mmHg 81%
    08:00 +15°C° 0 mm 1 m/s 738 mmHg 76%
    09:00 +18°C° 0 mm 1 m/s 738 mmHg 71%
    10:00 +19°C° 0 mm 2 m/s 738 mmHg 66%
    11:00 +20°C° 0 mm 2 m/s 738 mmHg 65%
    12:00 +21°C° 0 mm 2 m/s 738 mmHg 65%
    13:00 +23°C° 0 mm 2 m/s 738 mmHg 65%
    14:00 +21°C° 0.2 mm 2 m/s 737 mmHg 69%
    15:00 +21°C° 0.2 mm 2 m/s 737 mmHg 74%
    16:00 +21°C° 0.2 mm 2 m/s 737 mmHg 78%
    17:00 +20°C° 0.2 mm 2 m/s 737 mmHg 83%
    18:00 +19°C° 0.2 mm 2 m/s 736 mmHg 88%
    19:00 +18°C° 0.2 mm 2 m/s 736 mmHg 94%
    20:00 +17°C° 0.1 mm 2 m/s 736 mmHg 95%
    21:00 +18°C° 0.1 mm 1 m/s 736 mmHg 96%
    22:00 +16°C° 0.1 mm 1 m/s 736 mmHg 97%
    23:00 +16°C° 0 mm 2 m/s 735 mmHg 98%

    Depois de amanhã, 23 Agosto, Sexta-feira

    Tempo Temperatura Precipitação Vento Pressão Humidade
    00:00 +16°C° 0 mm 2 m/s 735 mmHg 98%
    01:00 +16°C° 0 mm 2 m/s 735 mmHg 98%
    02:00 +16°C° 0.1 mm 2 m/s 735 mmHg 98%
    03:00 +16°C° 0.1 mm 2 m/s 735 mmHg 98%
    04:00 +16°C° 0.1 mm 2 m/s 734 mmHg 99%
    05:00 +16°C° 0.1 mm 3 m/s 734 mmHg 98%
    06:00 +17°C° 0.1 mm 3 m/s 734 mmHg 98%
    07:00 +17°C° 0.1 mm 4 m/s 733 mmHg 97%
    08:00 +17°C° 0.3 mm 4 m/s 733 mmHg 97%
    09:00 +17°C° 0.3 mm 4 m/s 733 mmHg 97%
    10:00 +18°C° 0.3 mm 4 m/s 733 mmHg 97%
    11:00 +18°C° 0.3 mm 4 m/s 733 mmHg 92%
    12:00 +17°C° 0.3 mm 4 m/s 733 mmHg 87%
    13:00 +17°C° 0.3 mm 4 m/s 733 mmHg 81%
    14:00 +17°C° 0 mm 5 m/s 734 mmHg 75%
    15:00 +17°C° 0 mm 5 m/s 734 mmHg 68%
    16:00 +19°C° 0 mm 5 m/s 734 mmHg 62%
    17:00 +18°C° 0 mm 4 m/s 734 mmHg 69%
    18:00 +16°C° 0 mm 3 m/s 734 mmHg 75%
    19:00 +15°C° 0 mm 2 m/s 734 mmHg 82%
    20:00 +14°C° 0 mm 2 m/s 734 mmHg 85%
    21:00 +12°C° 0 mm 3 m/s 734 mmHg 88%
    22:00 +11°C° 0 mm 3 m/s 734 mmHg 91%
    23:00 +11°C° 0 mm 3 m/s 735 mmHg 93%

    24 Agosto, Sábado

    Tempo Temperatura Precipitação Vento Pressão Humidade
    00:00 +10°C° 0 mm 2 m/s 735 mmHg 94%
    01:00 +9°C° 0 mm 2 m/s 735 mmHg 96%
    02:00 +9°C° 0 mm 2 m/s 735 mmHg 97%
    03:00 +9°C° 0 mm 2 m/s 735 mmHg 97%
    04:00 +8°C° 0 mm 2 m/s 735 mmHg 98%
    05:00 +9°C° 0 mm 3 m/s 735 mmHg 96%
    06:00 +10°C° 0 mm 3 m/s 735 mmHg 93%
    07:00 +10°C° 0 mm 3 m/s 736 mmHg 91%
    08:00 +11°C° 0 mm 3 m/s 736 mmHg 85%
    09:00 +13°C° 0 mm 3 m/s 736 mmHg 79%
    10:00 +14°C° 0 mm 3 m/s 736 mmHg 73%
    11:00 +16°C° 0 mm 3 m/s 736 mmHg 69%
    12:00 +17°C° 0 mm 4 m/s 736 mmHg 65%
    13:00 +18°C° 0 mm 4 m/s 736 mmHg 61%
    14:00 +18°C° 0.2 mm 4 m/s 736 mmHg 64%
    15:00 +18°C° 0.2 mm 4 m/s 736 mmHg 68%
    16:00 +18°C° 0.2 mm 4 m/s 736 mmHg 72%
    17:00 +16°C° 0.2 mm 3 m/s 736 mmHg 77%
    18:00 +15°C° 0.2 mm 2 m/s 736 mmHg 82%
    19:00 +14°C° 0.2 mm 1 m/s 736 mmHg 88%
    20:00 +13°C° 0 mm 1 m/s 736 mmHg 89%
    21:00 +12°C° 0 mm 1 m/s 736 mmHg 90%
    22:00 +11°C° 0 mm 1 m/s 736 mmHg 91%
    23:00 +10°C° 0 mm 1 m/s 736 mmHg 92%

    25 Agosto, Domingo

    Tempo Temperatura Precipitação Vento Pressão Humidade
    00:00 +9°C° 0 mm 1 m/s 736 mmHg 93%
    01:00 +9°C° 0 mm 1 m/s 736 mmHg 93%
    02:00 +9°C° 0 mm 1 m/s 736 mmHg 95%
    03:00 +9°C° 0 mm 1 m/s 735 mmHg 96%
    04:00 +9°C° 0 mm 1 m/s 735 mmHg 97%
    05:00 +9°C° 0 mm 2 m/s 735 mmHg 96%
    06:00 +10°C° 0 mm 2 m/s 735 mmHg 95%
    07:00 +12°C° 0 mm 2 m/s 734 mmHg 94%
    08:00 +12°C° 0 mm 3 m/s 734 mmHg 88%
    09:00 +14°C° 0 mm 4 m/s 734 mmHg 83%
    10:00 +15°C° 0 mm 4 m/s 733 mmHg 77%
    11:00 +16°C° 0 mm 5 m/s 733 mmHg 72%
    12:00 +17°C° 0 mm 5 m/s 732 mmHg 67%
    13:00 +19°C° 0 mm 6 m/s 732 mmHg 62%
    14:00 +19°C° 0.1 mm 5 m/s 731 mmHg 66%
    15:00 +18°C° 0.1 mm 4 m/s 731 mmHg 70%
    16:00 +18°C° 0.1 mm 4 m/s 730 mmHg 75%
    17:00 +16°C° 1.4 mm 3 m/s 730 mmHg 82%
    18:00 +14°C° 1.4 mm 3 m/s 730 mmHg 89%
    19:00 +13°C° 1.4 mm 3 m/s 729 mmHg 96%
    20:00 +12°C° 0.2 mm 3 m/s 729 mmHg 97%
    21:00 +12°C° 0.2 mm 3 m/s 729 mmHg 97%
    22:00 +11°C° 0.2 mm 3 m/s 729 mmHg 97%
    23:00 +11°C° 0 mm 3 m/s 729 mmHg 98%

    26 Agosto, Segunda-feira

    Tempo Temperatura Precipitação Vento Pressão Humidade
    00:00 +11°C° 0 mm 3 m/s 729 mmHg 98%
    01:00 +12°C° 0 mm 2 m/s 728 mmHg 98%
    02:00 +10°C° 0 mm 3 m/s 728 mmHg 98%
    03:00 +10°C° 0 mm 3 m/s 728 mmHg 98%
    04:00 +9°C° 0 mm 3 m/s 728 mmHg 98%
    05:00 +9°C° 0 mm 3 m/s 728 mmHg 97%
    06:00 +9°C° 0 mm 3 m/s 728 mmHg 96%
    07:00 +9°C° 0 mm 3 m/s 728 mmHg 96%
    08:00 +8°C° 0.2 mm 4 m/s 728 mmHg 94%
    09:00 +8°C° 0.2 mm 4 m/s 728 mmHg 93%
    10:00 +10°C° 0.2 mm 4 m/s 729 mmHg 92%
    11:00 +8°C° 0.2 mm 4 m/s 729 mmHg 91%
    12:00 +8°C° 0.2 mm 5 m/s 729 mmHg 90%
    13:00 +8°C° 0.2 mm 5 m/s 729 mmHg 89%
    14:00 +7°C° 0 mm 5 m/s 730 mmHg 86%
    15:00 +7°C° 0 mm 5 m/s 730 mmHg 84%
    16:00 +7°C° 0 mm 5 m/s 730 mmHg 82%
    17:00 +6°C° 0 mm 5 m/s 730 mmHg 82%
    18:00 +6°C° 0 mm 5 m/s 730 mmHg 82%
    19:00 +6°C° 0 mm 5 m/s 730 mmHg 82%
    20:00 +5°C° 0 mm 5 m/s 730 mmHg 84%
    21:00 +5°C° 0 mm 5 m/s 730 mmHg 85%
    22:00 +5°C° 0 mm 5 m/s 731 mmHg 86%
    23:00 +5°C° 0.1 mm 5 m/s 731 mmHg 87%
    Mostrar mais